Time,TemperatureF,DewpointF,PressureIn,WindDirection,WindDirectionDegrees,WindSpeedMPH,WindSpeedGustMPH,Humidity,HourlyPrecipIn,Conditions,Clouds,dailyrainin,SolarRadiationWatts/m^2,SoftwareType,DateUTC
2013-11-11 00:03:00,16.0,11.0,-100.00,NNW,341,6.0,16.0,82,0.00,,,0.11,0.000000,,2013-11-11 06:03:00,
2013-11-11 00:42:00,15.0,10.0,-100.00,NNW,348,8.0,16.0,81,0.00,,,0.11,0.000000,,2013-11-11 06:42:00,
2013-11-11 00:52:00,15.0,10.0,-100.00,NNW,348,8.0,16.0,81,0.00,,,0.11,0.000000,,2013-11-11 06:52:00,
2013-11-11 01:02:00,15.0,10.0,-100.00,NNW,348,8.0,16.0,81,0.00,,,0.11,0.000000,,2013-11-11 07:02:00,
2013-11-11 01:43:00,14.0,8.0,-100.00,NNW,327,5.0,19.0,78,0.00,,,0.11,0.000000,,2013-11-11 07:43:00,
2013-11-11 01:52:00,14.0,8.0,-100.00,NNW,327,5.0,19.0,78,0.00,,,0.11,0.000000,,2013-11-11 07:52:00,
2013-11-11 02:02:00,14.0,8.0,-100.00,NNW,327,5.0,19.0,78,0.00,,,0.11,0.000000,,2013-11-11 08:02:00,
2013-11-11 02:22:00,15.0,9.0,-100.00,NNW,328,6.0,15.0,77,0.00,,,0.11,0.000000,,2013-11-11 08:22:00,
2013-11-11 02:32:00,15.0,9.0,-100.00,NNW,328,6.0,15.0,77,0.00,,,0.11,0.000000,,2013-11-11 08:32:00,
2013-11-11 02:42:00,15.0,9.0,-100.00,NNW,328,6.0,15.0,77,0.00,,,0.11,0.000000,,2013-11-11 08:42:00,
2013-11-11 02:52:00,15.0,9.0,-100.00,NNW,328,6.0,15.0,77,0.00,,,0.11,0.000000,,2013-11-11 08:52:00,
2013-11-11 03:02:00,15.0,9.0,-100.00,NNW,328,6.0,15.0,77,0.00,,,0.11,0.000000,,2013-11-11 09:02:00,
2013-11-11 03:22:00,14.0,7.0,-100.00,NNW,329,8.0,20.0,74,0.00,,,0.11,0.000000,,2013-11-11 09:22:00,
2013-11-11 03:33:00,14.0,7.0,-100.00,NNW,329,8.0,20.0,74,0.00,,,0.11,0.000000,,2013-11-11 09:33:00,
2013-11-11 03:43:00,14.0,7.0,-100.00,NNW,329,8.0,20.0,74,0.00,,,0.11,0.000000,,2013-11-11 09:43:00,
2013-11-11 03:54:00,14.0,7.0,-100.00,NNW,329,8.0,20.0,74,0.00,,,0.11,0.000000,,2013-11-11 09:54:00,
2013-11-11 04:03:00,14.0,7.0,-100.00,NNW,329,8.0,20.0,74,0.00,,,0.11,0.000000,,2013-11-11 10:03:00,
2013-11-11 04:42:00,14.0,7.0,-100.00,NW,326,6.0,17.0,72,0.00,,,0.11,0.000000,,2013-11-11 10:42:00,
2013-11-11 04:52:00,14.0,7.0,-100.00,NW,326,6.0,17.0,72,0.00,,,0.11,0.000000,,2013-11-11 10:52:00,
2013-11-11 05:03:00,14.0,7.0,-100.00,NW,326,6.0,17.0,72,0.00,,,0.11,0.000000,,2013-11-11 11:03:00,
2013-11-11 05:42:00,13.0,7.0,-100.00,NW,322,5.0,12.0,78,0.00,,,0.11,0.000000,,2013-11-11 11:42:00,
2013-11-11 05:52:00,13.0,7.0,-100.00,NW,322,5.0,12.0,78,0.00,,,0.11,0.000000,,2013-11-11 11:52:00,
2013-11-11 06:02:00,13.0,7.0,-100.00,NW,322,5.0,12.0,78,0.00,,,0.11,0.000000,,2013-11-11 12:02:00,
2013-11-11 06:22:00,12.0,6.0,-100.00,NNW,328,5.0,14.0,76,0.00,,,-99.99,0.000000,,2013-11-11 12:22:00,
2013-11-11 06:32:00,12.0,6.0,-100.00,NNW,328,5.0,14.0,76,0.00,,,-99.99,0.000000,,2013-11-11 12:32:00,
2013-11-11 06:42:00,12.0,6.0,-100.00,NNW,328,5.0,14.0,76,0.00,,,-99.99,0.000000,,2013-11-11 12:42:00,
2013-11-11 06:52:00,12.0,6.0,-100.00,NNW,328,5.0,14.0,76,0.00,,,-99.99,0.000000,,2013-11-11 12:52:00,
2013-11-11 07:01:00,12.0,6.0,-100.00,NNW,328,5.0,14.0,76,0.00,,,-99.99,0.000000,,2013-11-11 13:01:00,
2013-11-11 07:42:00,12.0,6.0,-100.00,NNW,327,4.0,12.0,78,0.00,,,-99.99,0.000000,,2013-11-11 13:42:00,
2013-11-11 07:52:00,12.0,6.0,-100.00,NNW,327,4.0,12.0,78,0.00,,,-99.99,0.000000,,2013-11-11 13:52:00,
2013-11-11 08:02:00,12.0,6.0,-100.00,NNW,327,4.0,12.0,78,0.00,,,-99.99,0.000000,,2013-11-11 14:02:00,
2013-11-11 08:42:00,14.0,7.0,-100.00,NNW,334,7.0,15.0,73,0.00,,,-99.99,44.000000,,2013-11-11 14:42:00,
2013-11-11 08:52:00,14.0,7.0,-100.00,NNW,334,7.0,15.0,73,0.00,,,-99.99,44.000000,,2013-11-11 14:52:00,
2013-11-11 09:02:00,14.0,7.0,-100.00,NNW,334,7.0,15.0,73,0.00,,,-99.99,44.000000,,2013-11-11 15:02:00,
2013-11-11 09:43:00,17.0,7.0,-100.00,NW,326,7.0,15.0,64,0.00,,,-99.99,214.000000,,2013-11-11 15:43:00,
2013-11-11 09:53:00,17.0,7.0,-100.00,NW,326,7.0,15.0,64,0.00,,,-99.99,214.000000,,2013-11-11 15:53:00,
2013-11-11 10:03:00,17.0,7.0,-100.00,NW,326,7.0,15.0,64,0.00,,,-99.99,214.000000,,2013-11-11 16:03:00,
2013-11-11 10:23:00,17.0,5.0,-100.00,NW,326,6.0,14.0,59,0.00,,,0.10,327.000000,,2013-11-11 16:23:00,
2013-11-11 10:33:00,17.0,5.0,-100.00,NW,326,6.0,14.0,59,0.00,,,0.10,327.000000,,2013-11-11 16:33:00,
2013-11-11 10:42:00,17.0,5.0,-100.00,NW,326,6.0,14.0,59,0.00,,,0.10,327.000000,,2013-11-11 16:42:00,
2013-11-11 10:53:00,17.0,5.0,-100.00,NW,326,6.0,14.0,59,0.00,,,0.10,327.000000,,2013-11-11 16:53:00,
2013-11-11 11:03:00,17.0,5.0,-100.00,NW,326,6.0,14.0,59,0.00,,,0.10,327.000000,,2013-11-11 17:03:00,
2013-11-11 11:22:00,20.0,8.0,-100.00,WNW,299,7.0,18.0,59,0.00,,,0.08,390.000000,,2013-11-11 17:22:00,
2013-11-11 11:33:00,20.0,8.0,-100.00,WNW,299,7.0,18.0,59,0.00,,,0.08,390.000000,,2013-11-11 17:33:00,
2013-11-11 11:42:00,20.0,8.0,-100.00,WNW,299,7.0,18.0,59,0.00,,,0.08,390.000000,,2013-11-11 17:42:00,
2013-11-11 11:52:00,20.0,8.0,-100.00,WNW,299,7.0,18.0,59,0.00,,,0.08,390.000000,,2013-11-11 17:52:00,
2013-11-11 12:02:00,20.0,8.0,-100.00,WNW,299,7.0,18.0,59,0.00,,,0.08,390.000000,,2013-11-11 18:02:00,
2013-11-11 12:23:00,20.0,7.0,-100.00,WNW,295,6.0,16.0,57,0.01,,,0.07,545.000000,,2013-11-11 18:23:00,
2013-11-11 12:32:00,20.0,7.0,-100.00,WNW,295,6.0,16.0,57,0.01,,,0.07,545.000000,,2013-11-11 18:32:00,
2013-11-11 12:42:00,20.0,7.0,-100.00,WNW,295,6.0,16.0,57,0.01,,,0.07,545.000000,,2013-11-11 18:42:00,
2013-11-11 12:52:00,20.0,7.0,-100.00,WNW,295,6.0,16.0,57,0.01,,,0.07,545.000000,,2013-11-11 18:52:00,
2013-11-11 13:01:00,20.0,7.0,-100.00,WNW,295,6.0,16.0,57,0.01,,,0.07,545.000000,,2013-11-11 19:01:00,
2013-11-11 13:22:00,19.0,6.0,-100.00,WNW,303,8.0,16.0,57,0.00,,,0.05,369.000000,,2013-11-11 19:22:00,
2013-11-11 13:32:00,19.0,6.0,-100.00,WNW,303,8.0,16.0,57,0.00,,,0.05,369.000000,,2013-11-11 19:32:00,
2013-11-11 13:42:00,19.0,6.0,-100.00,WNW,303,8.0,16.0,57,0.00,,,0.05,369.000000,,2013-11-11 19:42:00,
2013-11-11 13:53:00,19.0,6.0,-100.00,WNW,303,8.0,16.0,57,0.00,,,0.05,369.000000,,2013-11-11 19:53:00,
2013-11-11 14:02:00,19.0,6.0,-100.00,WNW,303,8.0,16.0,57,0.00,,,0.05,369.000000,,2013-11-11 20:02:00,
2013-11-11 14:42:00,21.0,8.0,-100.00,NW,311,7.0,14.0,57,0.00,,,0.04,196.000000,,2013-11-11 20:42:00,
2013-11-11 14:52:00,21.0,8.0,-100.00,NW,311,7.0,14.0,57,0.00,,,0.04,196.000000,,2013-11-11 20:52:00,
2013-11-11 15:02:00,21.0,8.0,-100.00,NW,311,7.0,14.0,57,0.00,,,0.04,196.000000,,2013-11-11 21:02:00,
2013-11-11 15:04:00,19.0,6.0,-100.00,NW,322,7.0,15.0,56,0.00,,,0.02,248.000000,,2013-11-11 21:04:00,
2013-11-11 15:22:00,19.0,6.0,-100.00,NW,322,7.0,15.0,56,0.00,,,0.02,248.000000,,2013-11-11 21:22:00,
2013-11-11 15:34:00,19.0,6.0,-100.00,NW,322,7.0,15.0,56,0.00,,,0.02,248.000000,,2013-11-11 21:34:00,
2013-11-11 15:43:00,19.0,6.0,-100.00,NW,322,7.0,15.0,56,0.00,,,0.02,248.000000,,2013-11-11 21:43:00,
2013-11-11 15:55:00,19.0,6.0,-100.00,NW,322,7.0,15.0,56,0.00,,,0.02,248.000000,,2013-11-11 21:55:00,
2013-11-11 16:24:00,16.0,6.0,-100.00,WNW,297,7.0,15.0,64,0.00,,,0.02,48.000000,,2013-11-11 22:24:00,
2013-11-11 16:34:00,16.0,6.0,-100.00,WNW,297,7.0,15.0,64,0.00,,,0.02,48.000000,,2013-11-11 22:34:00,
2013-11-11 16:43:00,16.0,6.0,-100.00,WNW,297,7.0,15.0,64,0.00,,,0.02,48.000000,,2013-11-11 22:43:00,
2013-11-11 16:53:00,16.0,6.0,-100.00,WNW,297,7.0,15.0,64,0.00,,,0.02,48.000000,,2013-11-11 22:53:00,
2013-11-11 17:03:00,16.0,6.0,-100.00,WNW,297,7.0,15.0,64,0.00,,,0.02,48.000000,,2013-11-11 23:03:00,
2013-11-11 17:43:00,15.0,7.0,-100.00,WNW,289,5.0,12.0,71,0.00,,,0.01,7.000000,,2013-11-11 23:43:00,
2013-11-11 17:53:00,15.0,7.0,-100.00,WNW,289,5.0,12.0,71,0.00,,,0.01,7.000000,,2013-11-11 23:53:00,
2013-11-11 18:03:00,15.0,7.0,-100.00,WNW,289,5.0,12.0,71,0.00,,,0.01,7.000000,,2013-11-12 00:03:00,
2013-11-11 18:22:00,14.0,7.0,-100.00,North,1,2.0,10.0,72,0.00,,,0.01,0.000000,,2013-11-12 00:22:00,
2013-11-11 18:32:00,14.0,7.0,-100.00,North,1,2.0,10.0,72,0.00,,,0.01,0.000000,,2013-11-12 00:32:00,
2013-11-11 18:42:00,14.0,7.0,-100.00,North,1,2.0,10.0,72,0.00,,,0.01,0.000000,,2013-11-12 00:42:00,
2013-11-11 18:52:00,14.0,7.0,-100.00,North,1,2.0,10.0,72,0.00,,,0.01,0.000000,,2013-11-12 00:52:00,
2013-11-11 19:01:00,14.0,7.0,-100.00,North,1,2.0,10.0,72,0.00,,,0.01,0.000000,,2013-11-12 01:01:00,
2013-11-11 19:22:00,13.0,6.0,-100.00,NNW,330,3.0,8.0,72,0.00,,,0.01,0.000000,,2013-11-12 01:22:00,
2013-11-11 19:32:00,13.0,6.0,-100.00,NNW,330,3.0,8.0,72,0.00,,,0.01,0.000000,,2013-11-12 01:32:00,
2013-11-11 19:42:00,13.0,6.0,-100.00,NNW,330,3.0,8.0,72,0.00,,,0.01,0.000000,,2013-11-12 01:42:00,
2013-11-11 19:52:00,13.0,6.0,-100.00,NNW,330,3.0,8.0,72,0.00,,,0.01,0.000000,,2013-11-12 01:52:00,
2013-11-11 20:01:00,13.0,6.0,-100.00,NNW,330,3.0,8.0,72,0.00,,,0.01,0.000000,,2013-11-12 02:01:00,
2013-11-11 20:22:00,10.0,4.0,-100.00,NW,309,2.0,6.0,75,0.00,,,0.01,0.000000,,2013-11-12 02:22:00,
2013-11-11 20:32:00,10.0,4.0,-100.00,NW,309,2.0,6.0,75,0.00,,,0.01,0.000000,,2013-11-12 02:32:00,
2013-11-11 20:42:00,10.0,4.0,-100.00,NW,309,2.0,6.0,75,0.00,,,0.01,0.000000,,2013-11-12 02:42:00,
2013-11-11 20:52:00,10.0,4.0,-100.00,NW,309,2.0,6.0,75,0.00,,,0.01,0.000000,,2013-11-12 02:52:00,
2013-11-11 21:02:00,10.0,4.0,-100.00,NW,309,2.0,6.0,75,0.00,,,0.01,0.000000,,2013-11-12 03:02:00,
2013-11-11 21:04:00,8.0,3.0,-100.00,WNW,293,2.0,4.0,80,0.00,,,0.01,0.000000,,2013-11-12 03:04:00,
2013-11-11 21:45:00,8.0,3.0,-100.00,WNW,293,2.0,4.0,80,0.00,,,0.01,0.000000,,2013-11-12 03:45:00,
2013-11-11 21:54:00,8.0,3.0,-100.00,WNW,293,2.0,4.0,80,0.00,,,0.01,0.000000,,2013-11-12 03:54:00,
2013-11-11 22:44:00,8.0,4.0,-100.00,WNW,294,2.0,6.0,83,0.00,,,0.01,0.000000,,2013-11-12 04:44:00,
2013-11-11 22:53:00,8.0,4.0,-100.00,WNW,294,2.0,6.0,83,0.00,,,0.01,0.000000,,2013-11-12 04:53:00,
2013-11-11 23:03:00,8.0,4.0,-100.00,WNW,294,2.0,6.0,83,0.00,,,0.01,0.000000,,2013-11-12 05:03:00,
2013-11-11 23:24:00,7.0,3.0,-100.00,West,276,3.0,6.0,84,0.00,,,0.01,0.000000,,2013-11-12 05:24:00,
2013-11-11 23:34:00,7.0,3.0,-100.00,West,276,3.0,6.0,84,0.00,,,0.01,0.000000,,2013-11-12 05:34:00,
2013-11-11 23:44:00,7.0,3.0,-100.00,West,276,3.0,6.0,84,0.00,,,0.01,0.000000,,2013-11-12 05:44:00,
2013-11-11 23:54:00,7.0,3.0,-100.00,West,276,3.0,6.0,84,0.00,,,0.01,0.000000,,2013-11-12 05:54:00,